Location: Franzen
(48.6167°N, 15.3833°E)
Time: 05:11:46
(UTC+00:00)

Transit 2A Rocket - All Passes

Search period start: 31 July 2021 00:00
Search period end: 10 August 2021 00:00
Orbit: 589 x 913 km, 66.7° (Epoch: 30 July)

Date Brightness Start Highest point End Pass type
(mag) Time Alt. Az. Time Alt. Az. Time Alt. Az.
31 Jul - 12:53:22 10° S 12:57:29 39° ESE 13:01:55 10° NE daylight
31 Jul - 14:35:54 10° WSW 14:40:05 35° NW 14:44:37 10° NNE daylight
31 Jul - 16:22:05 10° NW 16:24:14 13° NNW 16:26:29 10° N daylight
31 Jul - 18:07:55 10° N 18:09:15 11° N 18:10:36 10° NNE daylight
31 Jul - 19:49:37 10° NNW 19:53:50 23° NE 19:58:18 10° E visible
31 Jul - 21:31:41 10° NW 21:37:11 83° NE 21:43:05 10° SE visible
31 Jul - 23:15:17 10° WNW 23:19:15 20° WSW 23:23:24 10° SSW visible
01 Aug - 12:11:38 10° SSE 12:15:07 23° ESE 12:18:48 10° ENE daylight
01 Aug - 13:52:50 10° SW 13:57:15 54° NW 14:02:05 10° NNE daylight
01 Aug - 15:38:08 10° WNW 15:41:02 16° NNW 15:44:04 10° NNE daylight
01 Aug - 17:25:17 10° N 17:25:55 10° N 17:26:33 10° N daylight
01 Aug - 19:07:11 10° NNW 19:10:44 18° NNE 19:14:28 10° ENE visible
01 Aug - 20:49:06 10° NNW 20:54:27 56° NE 21:00:13 10° SE visible
01 Aug - 22:32:00 10° NW 22:36:53 32° WSW 22:42:01 10° S visible
02 Aug - 11:30:48 10° SE 11:32:52 13° ESE 11:34:59 10° ENE daylight
02 Aug - 13:10:04 10° SW 13:14:33 87° NW 13:19:28 10° NE daylight
02 Aug - 14:54:24 10° W 14:57:55 20° NNW 15:01:39 10° NNE daylight
02 Aug - 16:41:39 10° NNW 16:42:35 10° N 16:43:31 10° N daylight
02 Aug - 18:24:46 10° N 18:27:34 14° NNE 18:30:28 10° NE daylight
02 Aug - 20:06:34 10° NNW 20:11:38 38° NE 20:17:03 10° ESE visible
02 Aug - 21:49:04 10° NW 21:54:24 49° WSW 22:00:05 10° S visible
03 Aug - 12:27:37 10° SSW 12:31:58 55° ESE 12:36:43 10° NE daylight
03 Aug - 14:10:54 10° W 14:14:53 28° NW 14:19:11 10° NNE daylight
03 Aug - 15:57:33 10° NNW 15:59:16 12° NNW 16:01:03 10° N daylight
03 Aug - 17:42:20 10° N 17:44:18 12° NNE 17:46:19 10° NE daylight
03 Aug - 19:24:05 10° NNW 19:28:42 28° NE 19:33:37 10° E visible
03 Aug - 21:06:18 10° NW 21:11:49 77° WSW 21:17:45 10° SSE visible
03 Aug - 22:50:40 10° WNW 22:53:41 15° WSW 22:56:47 10° SW visible
04 Aug - 11:45:34 10° S 11:49:32 32° ESE 11:53:48 10° NE daylight
04 Aug - 13:27:39 10° WSW 13:31:58 41° NW 13:36:41 10° NNE daylight
04 Aug - 15:13:31 10° NW 15:16:00 14° NNW 15:18:37 10° N daylight
04 Aug - 16:59:47 10° N 17:00:59 11° N 17:02:12 10° NNE daylight
04 Aug - 18:41:38 10° NNW 18:45:41 21° NNE 18:49:56 10° E daylight
04 Aug - 20:23:40 10° NNW 20:29:10 72° NE 20:35:04 10° SE visible
04 Aug - 22:06:58 10° WNW 22:11:23 24° WSW 22:15:58 10° SSW visible
05 Aug - 11:04:04 10° SSE 11:07:13 19° ESE 11:10:31 10° ENE daylight
05 Aug - 12:44:42 10° SW 12:49:11 64° NW 12:54:07 10° NNE daylight
05 Aug - 14:29:38 10° WNW 14:32:50 17° NNW 14:36:11 10° NNE daylight
05 Aug - 16:16:49 10° N 16:17:39 10° N 16:18:30 10° N daylight
05 Aug - 17:59:12 10° NNW 18:02:33 16° NNE 18:06:03 10° ENE daylight
05 Aug - 19:41:05 10° NNW 19:46:24 49° NE 19:52:05 10° ESE visible
05 Aug - 21:23:51 10° NW 21:28:57 37° WSW 21:34:21 10° S visible
06 Aug - 10:24:07 10° ESE 10:25:00 10° ESE 10:25:54 10° E daylight
06 Aug - 12:02:02 10° SSW 12:06:31 78° ESE 12:11:27 10° NE daylight
06 Aug - 13:46:00 10° W 13:49:44 23° NNW 13:53:45 10° NNE daylight
06 Aug - 15:32:59 10° NNW 15:34:19 11° N 15:35:41 10° N daylight
06 Aug - 17:16:46 10° N 17:19:20 13° NNE 17:22:00 10° NE daylight
06 Aug - 18:58:35 10° NNW 19:03:32 34° NE 19:08:50 10° ESE visible
06 Aug - 20:40:58 10° NW 20:46:26 58° WSW 20:52:15 10° SSE visible
06 Aug - 22:27:21 10° W 22:28:04 10° WSW 22:28:47 10° WSW visible
07 Aug - 11:19:43 10° S 11:24:00 46° ESE 11:28:39 10° NE daylight
07 Aug - 13:02:35 10° WSW 13:06:45 32° NW 13:11:15 10° NNE daylight
07 Aug - 14:48:56 10° NW 14:51:01 12° NNW 14:53:10 10° N daylight
07 Aug - 16:34:16 10° N 16:36:03 12° NNE 16:37:53 10° NNE daylight
07 Aug - 18:16:06 10° NNW 18:20:34 25° NE 18:25:18 10° E daylight
07 Aug - 19:58:16 10° NW 20:03:50 88° SW 20:09:47 10° SSE visible
07 Aug - 21:42:08 10° WNW 21:45:49 18° WSW 21:49:36 10° SSW visible
08 Aug - 10:37:50 10° SSE 10:41:36 27° ESE 10:45:37 10° NE daylight
08 Aug - 12:19:26 10° WSW 12:23:52 48° NW 12:28:43 10° NNE daylight
08 Aug - 14:04:58 10° WNW 14:07:47 15° NNW 14:10:44 10° NNE daylight
08 Aug - 15:51:35 10° N 15:52:43 11° N 15:53:53 10° NNE daylight
08 Aug - 17:33:40 10° NNW 17:37:31 19° NNE 17:41:33 10° ENE daylight
08 Aug - 19:15:38 10° NNW 19:21:08 63° NE 19:27:01 10° SE visible
08 Aug - 20:58:43 10° NW 21:03:28 28° WSW 21:08:26 10° SSW visible
09 Aug - 09:56:37 10° SE 09:59:19 16° ESE 10:02:08 10° ENE daylight
09 Aug - 11:36:35 10° SW 11:41:08 76° NW 11:46:08 10° NNE daylight
09 Aug - 13:21:11 10° WNW 13:24:37 19° NNW 13:28:17 10° NNE daylight
09 Aug - 15:08:15 10° NNW 15:09:23 11° N 15:10:31 10° N daylight
09 Aug - 16:51:12 10° NNW 16:54:20 15° NNE 16:57:37 10° ENE daylight
09 Aug - 18:33:06 10° NNW 18:38:20 43° NE 18:43:56 10° ESE daylight
09 Aug - 20:15:42 10° NW 20:21:00 44° WSW 20:26:38 10° S visible
